When you browse on this site, cookies collect data to enhance your experience and personalize the content and advertising you see.
Visit our Privacy Policy to learn more. By continuing to use the site, you agree to this use of cookies and data.
EN

Hourly Weather Zd'ar nad Sazavou

Today, 5 July, Sunday

Time Temperature Precipitation Wind Pressure Humidity
00:00 +15°C° 0 mm 2 mps 711 mmHg 89%
01:00 +15°C° 0 mm 2 mps 711 mmHg 90%
02:00 +14°C° 0 mm 2 mps 711 mmHg 91%
03:00 +14°C° 0 mm 2 mps 711 mmHg 91%
04:00 +14°C° 0 mm 2 mps 711 mmHg 92%
05:00 +16°C° 0 mm 3 mps 711 mmHg 87%
06:00 +17°C° 0 mm 3 mps 711 mmHg 83%
07:00 +19°C° 0 mm 4 mps 712 mmHg 79%
08:00 +20°C° 0 mm 4 mps 712 mmHg 76%
09:00 +21°C° 0 mm 5 mps 712 mmHg 74%
10:00 +22°C° 0 mm 5 mps 712 mmHg 71%
11:00 +23°C° 0.1 mm 5 mps 712 mmHg 70%
12:00 +25°C° 0.1 mm 5 mps 711 mmHg 70%
13:00 +25°C° 0.1 mm 5 mps 711 mmHg 69%
14:00 +25°C° 0.3 mm 5 mps 711 mmHg 71%
15:00 +23°C° 0.3 mm 5 mps 711 mmHg 74%
16:00 +23°C° 0.3 mm 5 mps 710 mmHg 77%
17:00 +22°C° 0 mm 4 mps 710 mmHg 80%
18:00 +21°C° 0 mm 3 mps 710 mmHg 83%
19:00 +21°C° 0 mm 2 mps 710 mmHg 86%
20:00 +20°C° 0 mm 2 mps 710 mmHg 88%
21:00 +18°C° 0 mm 2 mps 710 mmHg 91%
22:00 +17°C° 0 mm 2 mps 710 mmHg 93%
23:00 +17°C° 0 mm 3 mps 710 mmHg 94%

Tomorrow, 6 July, Monday

Time Temperature Precipitation Wind Pressure Humidity
00:00 +17°C° 0 mm 3 mps 710 mmHg 94%
01:00 +17°C° 0 mm 3 mps 709 mmHg 94%
02:00 +16°C° 0 mm 3 mps 709 mmHg 94%
03:00 +16°C° 0 mm 3 mps 709 mmHg 95%
04:00 +14°C° 0 mm 3 mps 709 mmHg 95%
05:00 +16°C° 0 mm 3 mps 709 mmHg 90%
06:00 +18°C° 0 mm 4 mps 709 mmHg 85%
07:00 +19°C° 0 mm 5 mps 709 mmHg 80%
08:00 +20°C° 0.1 mm 5 mps 709 mmHg 79%
09:00 +20°C° 0.1 mm 5 mps 709 mmHg 77%
10:00 +21°C° 0.1 mm 5 mps 709 mmHg 76%
11:00 +20°C° 0.3 mm 5 mps 709 mmHg 77%
12:00 +19°C° 0.3 mm 5 mps 708 mmHg 79%
13:00 +19°C° 0.3 mm 6 mps 708 mmHg 81%
14:00 +19°C° 0 mm 5 mps 708 mmHg 76%
15:00 +19°C° 0 mm 5 mps 708 mmHg 71%
16:00 +19°C° 0 mm 5 mps 708 mmHg 66%
17:00 +17°C° 0.1 mm 4 mps 708 mmHg 69%
18:00 +15°C° 0.1 mm 4 mps 709 mmHg 73%
19:00 +14°C° 0.1 mm 4 mps 709 mmHg 77%
20:00 +13°C° 0.5 mm 3 mps 710 mmHg 79%
21:00 +12°C° 0.5 mm 3 mps 710 mmHg 82%
22:00 +12°C° 0.5 mm 2 mps 711 mmHg 85%
23:00 +12°C° 0.3 mm 2 mps 711 mmHg 85%

Day after tomorrow, 7 July, Tuesday

Time Temperature Precipitation Wind Pressure Humidity
00:00 +12°C° 0.3 mm 2 mps 711 mmHg 86%
01:00 +10°C° 0.3 mm 2 mps 711 mmHg 86%
02:00 +10°C° 0 mm 3 mps 711 mmHg 87%
03:00 +9°C° 0 mm 3 mps 711 mmHg 88%
04:00 +8°C° 0 mm 4 mps 711 mmHg 89%
05:00 +8°C° 0 mm 5 mps 711 mmHg 88%
06:00 +9°C° 0 mm 6 mps 712 mmHg 87%
07:00 +9°C° 0 mm 6 mps 712 mmHg 86%
08:00 +10°C° 0.1 mm 6 mps 712 mmHg 83%
09:00 +11°C° 0.1 mm 6 mps 712 mmHg 79%
10:00 +11°C° 0.1 mm 6 mps 713 mmHg 76%
11:00 +13°C° 0.1 mm 6 mps 713 mmHg 73%
12:00 +14°C° 0.1 mm 5 mps 713 mmHg 69%
13:00 +14°C° 0.1 mm 5 mps 713 mmHg 66%
14:00 +15°C° 0 mm 5 mps 713 mmHg 66%
15:00 +15°C° 0 mm 5 mps 713 mmHg 65%
16:00 +15°C° 0 mm 5 mps 713 mmHg 65%
17:00 +14°C° 0 mm 4 mps 713 mmHg 70%
18:00 +13°C° 0 mm 3 mps 713 mmHg 75%
19:00 +13°C° 0 mm 2 mps 712 mmHg 79%
20:00 +12°C° 0 mm 1 mps 713 mmHg 82%
21:00 +10°C° 0 mm 1 mps 713 mmHg 84%
22:00 +9°C° 0 mm 1 mps 713 mmHg 87%
23:00 +9°C° 0 mm 1 mps 712 mmHg 86%

8 July, Wednesday

Time Temperature Precipitation Wind Pressure Humidity
00:00 +9°C° 0 mm 1 mps 712 mmHg 86%
01:00 +8°C° 0 mm 1 mps 712 mmHg 86%
02:00 +8°C° 0 mm 1 mps 712 mmHg 86%
03:00 +8°C° 0 mm 1 mps 712 mmHg 86%
04:00 +8°C° 0 mm 1 mps 712 mmHg 86%
05:00 +10°C° 0 mm 1 mps 712 mmHg 83%
06:00 +12°C° 0 mm 2 mps 712 mmHg 79%
07:00 +14°C° 0 mm 2 mps 712 mmHg 76%
08:00 +15°C° 0 mm 2 mps 712 mmHg 71%
09:00 +17°C° 0 mm 2 mps 712 mmHg 66%
10:00 +18°C° 0 mm 2 mps 712 mmHg 60%
11:00 +19°C° 0 mm 3 mps 712 mmHg 59%
12:00 +20°C° 0 mm 3 mps 711 mmHg 58%
13:00 +21°C° 0 mm 3 mps 711 mmHg 56%
14:00 +21°C° 0 mm 4 mps 711 mmHg 58%
15:00 +21°C° 0 mm 4 mps 711 mmHg 60%
16:00 +21°C° 0 mm 4 mps 711 mmHg 62%
17:00 +20°C° 0.2 mm 3 mps 711 mmHg 69%
18:00 +19°C° 0.2 mm 3 mps 711 mmHg 76%
19:00 +17°C° 0.2 mm 3 mps 711 mmHg 83%
20:00 +16°C° 0 mm 2 mps 711 mmHg 85%
21:00 +14°C° 0 mm 1 mps 711 mmHg 87%
22:00 +13°C° 0 mm 1 mps 711 mmHg 89%
23:00 +12°C° 0 mm 1 mps 711 mmHg 89%

9 July, Thursday

Time Temperature Precipitation Wind Pressure Humidity
00:00 +12°C° 0 mm 1 mps 711 mmHg 90%
01:00 +12°C° 0 mm 2 mps 712 mmHg 91%
02:00 +10°C° 0 mm 2 mps 712 mmHg 92%
03:00 +10°C° 0 mm 2 mps 712 mmHg 93%
04:00 +9°C° 0 mm 2 mps 712 mmHg 95%
05:00 +10°C° 0 mm 2 mps 713 mmHg 93%
06:00 +11°C° 0 mm 3 mps 713 mmHg 92%
07:00 +12°C° 0 mm 3 mps 714 mmHg 91%
08:00 +14°C° 0 mm 3 mps 714 mmHg 83%
09:00 +16°C° 0 mm 2 mps 714 mmHg 75%
10:00 +17°C° 0 mm 2 mps 714 mmHg 67%
11:00 +18°C° 0 mm 2 mps 714 mmHg 64%
12:00 +19°C° 0 mm 2 mps 714 mmHg 61%
13:00 +20°C° 0 mm 2 mps 714 mmHg 58%
14:00 +21°C° 0 mm 1 mps 714 mmHg 58%
15:00 +21°C° 0 mm 1 mps 714 mmHg 58%
16:00 +21°C° 0 mm 1 mps 713 mmHg 59%
17:00 +20°C° 0 mm 1 mps 713 mmHg 65%
18:00 +19°C° 0 mm 1 mps 713 mmHg 72%
19:00 +18°C° 0 mm 1 mps 713 mmHg 78%
20:00 +16°C° 0 mm 1 mps 713 mmHg 82%
21:00 +15°C° 0 mm 1 mps 713 mmHg 86%
22:00 +13°C° 0 mm 2 mps 713 mmHg 90%
23:00 +13°C° 0 mm 1 mps 713 mmHg 89%

10 July, Friday

Time Temperature Precipitation Wind Pressure Humidity
00:00 +14°C° 0 mm 1 mps 713 mmHg 87%
01:00 +14°C° 0 mm 1 mps 712 mmHg 85%
02:00 +13°C° 0 mm 1 mps 712 mmHg 85%
03:00 +13°C° 0 mm 1 mps 712 mmHg 85%
04:00 +12°C° 0 mm 1 mps 711 mmHg 85%
05:00 +14°C° 0 mm 2 mps 712 mmHg 81%
06:00 +15°C° 0 mm 2 mps 712 mmHg 77%
07:00 +17°C° 0 mm 2 mps 712 mmHg 73%
08:00 +18°C° 0 mm 3 mps 712 mmHg 72%
09:00 +20°C° 0 mm 3 mps 712 mmHg 70%
10:00 +21°C° 0 mm 3 mps 712 mmHg 69%
11:00 +22°C° 0 mm 3 mps 712 mmHg 67%
12:00 +24°C° 0 mm 3 mps 711 mmHg 65%
13:00 +25°C° 0 mm 3 mps 711 mmHg 63%
14:00 +25°C° 0 mm 3 mps 711 mmHg 64%
15:00 +25°C° 0 mm 3 mps 711 mmHg 64%
16:00 +25°C° 0 mm 3 mps 710 mmHg 65%
17:00 +24°C° 0.2 mm 2 mps 710 mmHg 71%
18:00 +23°C° 0.2 mm 2 mps 710 mmHg 77%
19:00 +22°C° 0.2 mm 1 mps 710 mmHg 83%
20:00 +21°C° 0.1 mm 1 mps 710 mmHg 85%
21:00 +20°C° 0.1 mm 1 mps 710 mmHg 86%
22:00 +19°C° 0.1 mm 1 mps 710 mmHg 87%
23:00 +19°C° 0.1 mm 1 mps 710 mmHg 89%
Show more